This is the latest recevied weather packets stored in our database for station/object K7DC. If no packets are shown the sender has not sent any weather packets the latest 10 day(s).
| Time | Temp. | Humidity | Pressure | Rain* | Wind** | Luminosity | Snow |
|---|---|---|---|---|---|---|---|
| 1777650365 | 22.22° C | 44% | 1014 hPa | 0 mm | - | 534 W/m² | - |
| 1777650062 | 21.67° C | 44% | 1014 hPa | 0 mm | - | 517 W/m² | - |
| 1777649759 | 21.11° C | 45% | 1013.9 hPa | 0 mm | - | 495 W/m² | - |
| 1777649456 | 21.11° C | 46% | 1014 hPa | 0 mm | - | 480 W/m² | - |
| 1777649153 | 21.11° C | 46% | 1013.9 hPa | 0 mm | - | 459 W/m² | - |
| 1777648850 | 20.56° C | 48% | 1013.8 hPa | 0 mm | - | 231 W/m² | - |
| 1777648546 | 20.56° C | 48% | 1013.7 hPa | 0 mm | - | 416 W/m² | - |
| 1777648243 | 20° C | 50% | 1013.7 hPa | 0 mm | - | 281 W/m² | - |
| 1777647938 | 20° C | 52% | 1013.4 hPa | 0 mm | - | 401 W/m² | - |
| 1777647636 | 20° C | 51% | 1013.5 hPa | 0 mm | - | 351 W/m² | - |
| 1777647331 | 18.89° C | 54% | 1013.4 hPa | 0 mm | - | 330 W/m² | - |
| 1777647030 | 18.89° C | 56% | 1013.7 hPa | 0 mm | - | 324 W/m² | - |
| 1777646725 | 18.89° C | 55% | 1013.5 hPa | 0 mm | - | 289 W/m² | - |
| 1777646421 | 18.89° C | 57% | 1013.3 hPa | 0 mm | - | 267 W/m² | - |
| 1777646117 | 18.33° C | 60% | 1013.5 hPa | 0 mm | - | 248 W/m² | - |
| 1777645815 | 18.33° C | 59% | 1013.3 hPa | 0 mm | - | 236 W/m² | - |
| 1777645512 | 17.78° C | 62% | 1013.7 hPa | 0 mm | - | 217 W/m² | - |
| 1777645208 | 17.22° C | 64% | 1013.3 hPa | 0 mm | - | 200 W/m² | - |
| 1777644903 | 16.67° C | 66% | 1013.2 hPa | 0 mm | - | 185 W/m² | - |
| 1777644602 | 16.67° C | 67% | 1013 hPa | 0 mm | - | 170 W/m² | - |
| 1777644297 | 16.67° C | 68% | 1013.4 hPa | 0 mm | - | 152 W/m² | - |
| 1777643994 | 16.11° C | 67% | 1013.5 hPa | 0 mm | - | 136 W/m² | - |
| 1777643691 | 16.11° C | 68% | 1013.2 hPa | 0 mm | - | 120 W/m² | - |
| 1777643388 | 15.56° C | 70% | 1013.1 hPa | 0 mm | - | 104 W/m² | - |
| 1777643084 | 15.56° C | 72% | 1013.3 hPa | 0 mm | - | 91 W/m² | - |
* Rain latest hour (hover to see other rain measurements)
** Current wind speed in m/s (hover to see current wind gust speed)